To NAV CANADA Home Page Login to a new session Search on AWWS site Feedback and Comments Disclaimer Vers la page française équivalente Tips FAQ What's new on the site To the Forecasts and Observations / NOTAM section To "File a Flight Plan" website Publications and other links Update of the User's profile FIC Telephone Numbers My Weather Data Folder Route Weather Data Regional Weather Data Local Weather Data To the Forecasts and Observations / NOTAM section
Request Generated 09/28/2016 at 00:00:48 UTC . Weather information available at that time is displayed.

METAR/TAF

KANGIQSUJUAQ/KANGIQSUJUAQ (WAKEHAM BAY)/QC    

LWIS CYKG 272300Z AUTO 14007KT 05/01 A3012=
LWIS CYKG 272200Z AUTO 23003KT 210V280 07/02 A3012=
METAR CYKG 272100Z 30005KT 60SM FEW260 07/02 A3012 RMK CI2 LAST STFD
OBS/NEXT 281200 UTC SLP211=

CYKG - No TAF is issued for this station

Your time UTC time
Weather data provided by Environment Canada and NAV CANADA